Year,Month,Day,Hour,Minute,Value (Times are PST for windspeed in km/hr)
2022,05,16,00,00,0.00
2022,05,16,00,01,0.00
2022,05,16,00,02,0.00
2022,05,16,00,03,0.00
2022,05,16,00,04,0.00
2022,05,16,00,05,0.00
2022,05,16,00,06,0.00
2022,05,16,00,07,0.00
2022,05,16,00,08,0.00
2022,05,16,00,09,0.00
2022,05,16,00,10,0.00
2022,05,16,00,11,0.00
2022,05,16,00,12,0.00
2022,05,16,00,13,0.00
2022,05,16,00,14,0.00
2022,05,16,00,15,0.00
2022,05,16,00,16,0.00
2022,05,16,00,17,0.00
2022,05,16,00,18,0.00
2022,05,16,00,19,0.00
2022,05,16,00,20,0.00
2022,05,16,00,21,0.00
2022,05,16,00,22,0.00
2022,05,16,00,23,0.00
2022,05,16,00,24,0.00
2022,05,16,00,25,0.00
2022,05,16,00,26,0.00
2022,05,16,00,27,0.00
2022,05,16,00,28,0.00
2022,05,16,00,29,0.00
2022,05,16,00,30,1.70
2022,05,16,00,31,0.80
2022,05,16,00,32,0.00
2022,05,16,00,33,0.00
2022,05,16,00,34,0.00
2022,05,16,00,35,0.00
2022,05,16,00,36,0.00
2022,05,16,00,37,0.00
2022,05,16,00,38,0.00
2022,05,16,00,39,0.00
2022,05,16,00,40,0.00
2022,05,16,00,41,0.00
2022,05,16,00,42,0.00
2022,05,16,00,43,0.00
2022,05,16,00,44,0.00
2022,05,16,00,45,0.00
2022,05,16,00,46,0.00
2022,05,16,00,47,0.00
2022,05,16,00,48,0.00
2022,05,16,00,49,0.00
2022,05,16,00,50,0.00
2022,05,16,00,51,0.00
2022,05,16,00,52,0.00
2022,05,16,00,53,0.00
2022,05,16,00,54,0.00
2022,05,16,00,55,0.00
2022,05,16,00,56,0.00
2022,05,16,00,57,0.00
2022,05,16,00,58,0.00
2022,05,16,00,59,0.00
2022,05,16,01,00,0.00
2022,05,16,01,01,0.00
2022,05,16,01,02,0.00
2022,05,16,01,03,0.00
2022,05,16,01,04,0.00
2022,05,16,01,05,0.00
2022,05,16,01,06,0.00
2022,05,16,01,07,0.00
2022,05,16,01,08,1.80
2022,05,16,01,09,2.50
2022,05,16,01,10,2.10
2022,05,16,01,11,1.90
2022,05,16,01,12,0.20
2022,05,16,01,13,0.00
2022,05,16,01,14,0.00
2022,05,16,01,15,0.00
2022,05,16,01,16,0.00
2022,05,16,01,17,0.00
2022,05,16,01,18,0.00
2022,05,16,01,19,0.00
2022,05,16,01,20,2.10
2022,05,16,01,21,0.90
2022,05,16,01,22,1.80
2022,05,16,01,23,0.70
2022,05,16,01,24,3.10
2022,05,16,01,25,1.30
2022,05,16,01,26,5.20
2022,05,16,01,27,3.50
2022,05,16,01,28,2.00
2022,05,16,01,29,2.90
2022,05,16,01,30,1.80
2022,05,16,01,31,0.00
2022,05,16,01,32,2.10
2022,05,16,01,33,4.20
2022,05,16,01,34,4.80
2022,05,16,01,35,3.40
2022,05,16,01,36,2.70
2022,05,16,01,37,0.20
2022,05,16,01,38,5.70
2022,05,16,01,39,5.90
2022,05,16,01,40,7.90
2022,05,16,01,41,5.50
2022,05,16,01,42,8.90
2022,05,16,01,43,6.20
2022,05,16,01,44,5.80
2022,05,16,01,45,2.70
2022,05,16,01,46,7.00
2022,05,16,01,47,4.60
2022,05,16,01,48,4.50
2022,05,16,01,49,6.10
2022,05,16,01,50,6.00
2022,05,16,01,51,7.70
2022,05,16,01,52,6.50
2022,05,16,01,53,5.70
2022,05,16,01,54,5.70
2022,05,16,01,55,3.20
2022,05,16,01,56,3.60
2022,05,16,01,57,3.40
2022,05,16,01,58,0.20
2022,05,16,01,59,0.30
2022,05,16,02,00,3.00
2022,05,16,02,01,3.90
2022,05,16,02,02,4.90
2022,05,16,02,03,2.30
2022,05,16,02,04,5.30
2022,05,16,02,05,1.20
2022,05,16,02,06,2.60
2022,05,16,02,07,0.20
2022,05,16,02,08,0.60
2022,05,16,02,09,0.00
2022,05,16,02,10,0.00
2022,05,16,02,11,0.00
2022,05,16,02,12,0.00
2022,05,16,02,13,3.10
2022,05,16,02,14,0.50
2022,05,16,02,15,0.10
2022,05,16,02,16,1.10
2022,05,16,02,17,0.00
2022,05,16,02,18,0.00
2022,05,16,02,19,2.20
2022,05,16,02,20,2.60
2022,05,16,02,21,1.10
2022,05,16,02,22,1.50
2022,05,16,02,23,0.00
2022,05,16,02,24,0.00
2022,05,16,02,25,0.00
2022,05,16,02,26,1.40
2022,05,16,02,27,0.00
2022,05,16,02,28,0.00
2022,05,16,02,29,0.20
2022,05,16,02,30,1.80
2022,05,16,02,31,0.00
2022,05,16,02,32,0.00
2022,05,16,02,33,0.20
2022,05,16,02,34,0.10
2022,05,16,02,35,1.20
2022,05,16,02,36,0.50
2022,05,16,02,37,0.00
2022,05,16,02,38,0.00
2022,05,16,02,39,0.30
2022,05,16,02,40,3.90
2022,05,16,02,41,3.20
2022,05,16,02,42,3.10
2022,05,16,02,43,1.90
2022,05,16,02,44,2.70
2022,05,16,02,45,2.90
2022,05,16,02,46,2.00
2022,05,16,02,47,3.70
2022,05,16,02,48,5.30
2022,05,16,02,49,3.60
2022,05,16,02,50,4.70
2022,05,16,02,51,3.40
2022,05,16,02,52,0.30
2022,05,16,02,53,2.20
2022,05,16,02,54,4.70
2022,05,16,02,55,2.20
2022,05,16,02,56,3.90
2022,05,16,02,57,4.00
2022,05,16,02,58,5.90
2022,05,16,02,59,4.40
2022,05,16,03,00,5.00
2022,05,16,03,01,5.20
2022,05,16,03,02,0.70
2022,05,16,03,03,0.00
2022,05,16,03,04,3.40
2022,05,16,03,05,2.80
2022,05,16,03,06,3.30
2022,05,16,03,07,0.60
2022,05,16,03,08,5.20
2022,05,16,03,09,4.30
2022,05,16,03,10,7.20
2022,05,16,03,11,4.20
2022,05,16,03,12,4.00
2022,05,16,03,13,0.60
2022,05,16,03,14,0.00
2022,05,16,03,15,0.00
2022,05,16,03,16,0.00
2022,05,16,03,17,0.00
2022,05,16,03,18,0.00
2022,05,16,03,19,0.00
2022,05,16,03,20,0.00
2022,05,16,03,21,0.00
2022,05,16,03,22,1.50
2022,05,16,03,23,0.00
2022,05,16,03,24,0.00
2022,05,16,03,25,0.00
2022,05,16,03,26,0.00
2022,05,16,03,27,0.00
2022,05,16,03,28,0.00
2022,05,16,03,29,1.00
2022,05,16,03,30,0.30
2022,05,16,03,31,0.00
2022,05,16,03,32,0.00
2022,05,16,03,33,0.00
2022,05,16,03,34,0.00
2022,05,16,03,35,0.00
2022,05,16,03,36,0.00
2022,05,16,03,37,0.10
2022,05,16,03,38,1.60
2022,05,16,03,39,5.30
2022,05,16,03,40,5.60
2022,05,16,03,41,4.90
2022,05,16,03,42,4.40
2022,05,16,03,43,4.50
2022,05,16,03,44,4.20
2022,05,16,03,45,1.60
2022,05,16,03,46,8.60
2022,05,16,03,47,5.10
2022,05,16,03,48,4.90
2022,05,16,03,49,2.50
2022,05,16,03,50,4.10
2022,05,16,03,51,0.30
2022,05,16,03,52,0.00
2022,05,16,03,53,3.10
2022,05,16,03,54,4.10
2022,05,16,03,55,0.20
2022,05,16,03,56,3.90
2022,05,16,03,57,4.70
2022,05,16,03,58,5.10
2022,05,16,03,59,4.40
2022,05,16,04,00,0.10
2022,05,16,04,01,0.00
2022,05,16,04,02,0.00
2022,05,16,04,03,0.00
2022,05,16,04,04,2.50
2022,05,16,04,05,2.60
2022,05,16,04,06,2.50
2022,05,16,04,07,3.90
2022,05,16,04,08,1.20
2022,05,16,04,09,0.00
2022,05,16,04,10,0.00
2022,05,16,04,11,0.00
2022,05,16,04,12,0.80
2022,05,16,04,13,2.70
2022,05,16,04,14,0.00
2022,05,16,04,15,1.40
2022,05,16,04,16,0.00
2022,05,16,04,17,1.00
2022,05,16,04,18,5.90
2022,05,16,04,19,0.30
2022,05,16,04,20,3.90
2022,05,16,04,21,0.90
2022,05,16,04,22,3.20
2022,05,16,04,23,5.10
2022,05,16,04,24,2.30
2022,05,16,04,25,4.10
2022,05,16,04,26,0.50
2022,05,16,04,27,1.60
2022,05,16,04,28,0.70
2022,05,16,04,29,4.60
2022,05,16,04,30,3.20
2022,05,16,04,31,3.90
2022,05,16,04,32,4.60
2022,05,16,04,33,0.30
2022,05,16,04,34,2.40
2022,05,16,04,35,4.80
2022,05,16,04,36,2.90
2022,05,16,04,37,0.60
2022,05,16,04,38,3.30
2022,05,16,04,39,1.80
2022,05,16,04,40,0.80
2022,05,16,04,41,5.60
2022,05,16,04,42,2.20
2022,05,16,04,43,4.70
2022,05,16,04,44,0.90
2022,05,16,04,45,2.00
2022,05,16,04,46,3.00
2022,05,16,04,47,0.00
2022,05,16,04,48,1.60
2022,05,16,04,49,1.20
2022,05,16,04,50,3.50
2022,05,16,04,51,1.40
2022,05,16,04,52,3.70
2022,05,16,04,53,0.20
2022,05,16,04,54,3.60
2022,05,16,04,55,5.00
2022,05,16,04,56,1.30
2022,05,16,04,57,0.80
2022,05,16,04,58,0.00
2022,05,16,04,59,0.00
2022,05,16,05,00,0.00
2022,05,16,05,01,0.00
2022,05,16,05,02,0.00
2022,05,16,05,03,0.00
2022,05,16,05,04,0.00
2022,05,16,05,05,1.30
2022,05,16,05,06,0.00
2022,05,16,05,07,0.00
2022,05,16,05,08,0.00
2022,05,16,05,09,0.00
2022,05,16,05,10,0.00
2022,05,16,05,11,0.00
2022,05,16,05,12,0.00
2022,05,16,05,13,0.00
2022,05,16,05,14,0.00
2022,05,16,05,15,0.00
2022,05,16,05,16,0.00
2022,05,16,05,17,0.00
2022,05,16,05,18,0.00
2022,05,16,05,19,0.00
2022,05,16,05,20,0.00
2022,05,16,05,21,0.00
2022,05,16,05,22,0.00
2022,05,16,05,23,0.00
2022,05,16,05,24,0.00
2022,05,16,05,25,0.00
2022,05,16,05,26,0.00
2022,05,16,05,27,0.00
2022,05,16,05,28,0.00
2022,05,16,05,29,0.00
2022,05,16,05,30,0.00
2022,05,16,05,31,0.00
2022,05,16,05,32,0.00
2022,05,16,05,33,0.00
2022,05,16,05,34,0.00
2022,05,16,05,35,0.00
2022,05,16,05,36,0.00
2022,05,16,05,37,0.00
2022,05,16,05,38,0.00
2022,05,16,05,39,0.00
2022,05,16,05,40,0.00
2022,05,16,05,41,0.00
2022,05,16,05,42,0.00
2022,05,16,05,43,0.00
2022,05,16,05,44,0.00
2022,05,16,05,45,0.00
2022,05,16,05,46,0.00
2022,05,16,05,47,0.00
2022,05,16,05,48,1.50
2022,05,16,05,49,1.50
2022,05,16,05,50,0.00
2022,05,16,05,51,0.00
2022,05,16,05,52,0.00
2022,05,16,05,53,0.00
2022,05,16,05,54,0.00
2022,05,16,05,55,0.00
2022,05,16,05,56,0.00
2022,05,16,05,57,0.00
2022,05,16,05,58,0.00
2022,05,16,05,59,0.00
2022,05,16,06,00,0.00
2022,05,16,06,01,0.00
2022,05,16,06,02,0.00
2022,05,16,06,03,0.00
2022,05,16,06,04,0.00
2022,05,16,06,05,0.00
2022,05,16,06,06,0.00
2022,05,16,06,07,0.00
2022,05,16,06,08,0.00
2022,05,16,06,09,0.00
2022,05,16,06,10,0.00
2022,05,16,06,11,0.00
2022,05,16,06,12,0.00
2022,05,16,06,13,0.00
2022,05,16,06,14,0.00
2022,05,16,06,15,2.30
2022,05,16,06,16,2.00
2022,05,16,06,17,0.50
2022,05,16,06,18,0.00
2022,05,16,06,19,1.10
2022,05,16,06,20,7.60
2022,05,16,06,21,0.60
2022,05,16,06,22,0.00
2022,05,16,06,23,0.00
2022,05,16,06,24,1.00
2022,05,16,06,25,0.00
2022,05,16,06,26,3.00
2022,05,16,06,27,1.00
2022,05,16,06,28,0.00
2022,05,16,06,29,0.00
2022,05,16,06,30,0.00
2022,05,16,06,31,3.00
2022,05,16,06,32,3.90
2022,05,16,06,33,3.80
2022,05,16,06,34,0.60
2022,05,16,06,35,5.60
2022,05,16,06,36,2.90
2022,05,16,06,37,5.40
2022,05,16,06,38,1.20
2022,05,16,06,39,0.00
2022,05,16,06,40,0.40
2022,05,16,06,41,3.10
2022,05,16,06,42,0.00
2022,05,16,06,43,3.60
2022,05,16,06,44,4.50
2022,05,16,06,45,2.20
2022,05,16,06,46,0.00
2022,05,16,06,47,0.00
2022,05,16,06,48,0.00
2022,05,16,06,49,0.00
2022,05,16,06,50,0.00
2022,05,16,06,51,0.50
2022,05,16,06,52,0.70
2022,05,16,06,53,0.00
2022,05,16,06,54,0.80
2022,05,16,06,55,9.60
2022,05,16,06,56,2.90
2022,05,16,06,57,0.00
2022,05,16,06,58,0.00
2022,05,16,06,59,0.00
2022,05,16,07,00,0.00
2022,05,16,07,01,0.00
2022,05,16,07,02,1.20
2022,05,16,07,03,5.20
2022,05,16,07,04,4.00
2022,05,16,07,05,2.50
2022,05,16,07,06,0.00
2022,05,16,07,07,0.00
2022,05,16,07,08,0.00
2022,05,16,07,09,0.20
2022,05,16,07,10,6.40
2022,05,16,07,11,4.00
2022,05,16,07,12,0.60
2022,05,16,07,13,0.00
2022,05,16,07,14,0.00
2022,05,16,07,15,0.00
2022,05,16,07,16,1.90
2022,05,16,07,17,1.50
2022,05,16,07,18,0.90
2022,05,16,07,19,1.70
2022,05,16,07,20,2.60
2022,05,16,07,21,1.80
2022,05,16,07,22,0.00
2022,05,16,07,23,0.90
2022,05,16,07,24,0.00
2022,05,16,07,25,0.00
2022,05,16,07,26,0.00
2022,05,16,07,27,0.00
2022,05,16,07,28,0.00
2022,05,16,07,29,0.00
2022,05,16,07,30,0.00
2022,05,16,07,31,0.00
2022,05,16,07,32,0.00
2022,05,16,07,33,0.00
2022,05,16,07,34,0.00
2022,05,16,07,35,0.00
2022,05,16,07,36,0.00
2022,05,16,07,37,0.00
2022,05,16,07,38,0.00
2022,05,16,07,39,0.00
2022,05,16,07,40,0.00
2022,05,16,07,41,2.20
2022,05,16,07,42,0.10
2022,05,16,07,43,0.00
2022,05,16,07,44,0.00
2022,05,16,07,45,0.00
2022,05,16,07,46,0.00
2022,05,16,07,47,0.00
2022,05,16,07,48,0.00
2022,05,16,07,49,0.00
2022,05,16,07,50,0.00
2022,05,16,07,51,0.00
2022,05,16,07,52,0.00
2022,05,16,07,53,0.00
2022,05,16,07,54,0.00
2022,05,16,07,55,0.00
2022,05,16,07,56,0.00
2022,05,16,07,57,0.00
2022,05,16,07,58,0.00
2022,05,16,07,59,0.00
2022,05,16,08,00,0.00
2022,05,16,08,01,2.20
2022,05,16,08,02,0.00
2022,05,16,08,03,0.00
2022,05,16,08,04,0.00
2022,05,16,08,05,0.00
2022,05,16,08,06,0.00
2022,05,16,08,07,0.00
2022,05,16,08,08,2.30
2022,05,16,08,09,4.80
2022,05,16,08,10,1.40
2022,05,16,08,11,7.70
2022,05,16,08,12,0.40
2022,05,16,08,13,0.00
2022,05,16,08,14,4.80
2022,05,16,08,15,4.20
2022,05,16,08,16,5.10
2022,05,16,08,17,1.30
2022,05,16,08,18,0.00
2022,05,16,08,19,0.00
2022,05,16,08,20,0.00
2022,05,16,08,21,0.00
2022,05,16,08,22,1.60
2022,05,16,08,23,1.40
2022,05,16,08,24,0.00
2022,05,16,08,25,3.90
2022,05,16,08,26,0.00
2022,05,16,08,27,1.40
2022,05,16,08,28,0.20
2022,05,16,08,29,0.90
2022,05,16,08,30,0.70
2022,05,16,08,31,0.00
2022,05,16,08,32,0.00
2022,05,16,08,33,1.90
2022,05,16,08,34,1.80
2022,05,16,08,35,0.00
2022,05,16,08,36,0.00
2022,05,16,08,37,0.00
2022,05,16,08,38,0.00
2022,05,16,08,39,0.00
2022,05,16,08,40,0.40
2022,05,16,08,41,0.00
2022,05,16,08,42,0.00
2022,05,16,08,43,0.00
2022,05,16,08,44,3.40
2022,05,16,08,45,1.00
2022,05,16,08,46,4.00
2022,05,16,08,47,2.50
2022,05,16,08,48,0.00
2022,05,16,08,49,2.70
2022,05,16,08,50,7.10
2022,05,16,08,51,1.40
2022,05,16,08,52,4.30
2022,05,16,08,53,1.10
2022,05,16,08,54,0.00
2022,05,16,08,55,3.10
2022,05,16,08,56,0.30
2022,05,16,08,57,0.00
2022,05,16,08,58,3.80
2022,05,16,08,59,5.00
2022,05,16,09,00,7.00
2022,05,16,09,01,0.20
2022,05,16,09,02,3.50
2022,05,16,09,03,2.20
2022,05,16,09,04,7.10
2022,05,16,09,05,2.50
2022,05,16,09,06,8.30
2022,05,16,09,07,6.00
2022,05,16,09,08,6.30
2022,05,16,09,09,9.30
2022,05,16,09,10,5.80
2022,05,16,09,11,7.40
2022,05,16,09,12,7.80
2022,05,16,09,13,9.30
2022,05,16,09,14,6.90
2022,05,16,09,15,5.80
2022,05,16,09,16,17.40
2022,05,16,09,17,11.20
2022,05,16,09,18,2.70
2022,05,16,09,19,5.40
2022,05,16,09,20,8.60
2022,05,16,09,21,7.30
2022,05,16,09,22,8.00
2022,05,16,09,23,2.80
2022,05,16,09,24,9.20
2022,05,16,09,25,2.60
2022,05,16,09,26,5.00
2022,05,16,09,27,7.60
2022,05,16,09,28,10.70
2022,05,16,09,29,9.90
2022,05,16,09,30,10.10
2022,05,16,09,31,20.70
2022,05,16,09,32,7.50
2022,05,16,09,33,7.40
2022,05,16,09,34,11.60
2022,05,16,09,35,7.50
2022,05,16,09,36,10.80
2022,05,16,09,37,17.30
2022,05,16,09,38,6.60
2022,05,16,09,39,4.90
2022,05,16,09,40,17.90
2022,05,16,09,41,9.60
2022,05,16,09,42,9.90
2022,05,16,09,43,8.70
2022,05,16,09,44,11.50
2022,05,16,09,45,6.50
2022,05,16,09,46,6.10
2022,05,16,09,47,10.50
2022,05,16,09,48,8.90
2022,05,16,09,49,13.70
2022,05,16,09,50,8.90
2022,05,16,09,51,10.20
2022,05,16,09,52,7.70
2022,05,16,09,53,11.20
2022,05,16,09,54,8.50
2022,05,16,09,55,8.40
2022,05,16,09,56,11.90
2022,05,16,09,57,5.30
2022,05,16,09,58,12.30
2022,05,16,09,59,7.90
2022,05,16,10,00,2.60
2022,05,16,10,01,8.50
2022,05,16,10,02,6.40
2022,05,16,10,03,6.20
2022,05,16,10,04,4.70
2022,05,16,10,05,3.90
2022,05,16,10,06,4.30
2022,05,16,10,07,9.10
2022,05,16,10,08,9.60
2022,05,16,10,09,9.50
2022,05,16,10,10,12.60
2022,05,16,10,11,9.50
2022,05,16,10,12,6.70
2022,05,16,10,13,4.80
2022,05,16,10,14,0.50
2022,05,16,10,15,3.90
2022,05,16,10,16,3.00
2022,05,16,10,17,13.20
2022,05,16,10,18,6.00
2022,05,16,10,19,2.50
2022,05,16,10,20,3.60
2022,05,16,10,21,0.00
2022,05,16,10,22,0.90
2022,05,16,10,23,1.50
2022,05,16,10,24,0.80
2022,05,16,10,25,0.00
2022,05,16,10,26,3.00
2022,05,16,10,27,4.60
2022,05,16,10,28,12.50
2022,05,16,10,29,6.00
2022,05,16,10,30,3.70
2022,05,16,10,31,11.00
2022,05,16,10,32,4.00
2022,05,16,10,33,6.90
2022,05,16,10,34,10.50
2022,05,16,10,35,3.60
2022,05,16,10,36,4.10
2022,05,16,10,37,5.20
2022,05,16,10,38,3.80
2022,05,16,10,39,5.50
2022,05,16,10,40,20.40
2022,05,16,10,41,8.00
2022,05,16,10,42,2.50
2022,05,16,10,43,0.00
2022,05,16,10,44,4.50
2022,05,16,10,45,5.30
2022,05,16,10,46,3.80
2022,05,16,10,47,2.50
2022,05,16,10,48,0.00
2022,05,16,10,49,0.00
2022,05,16,10,50,0.00
2022,05,16,10,51,2.00
2022,05,16,10,52,2.10
2022,05,16,10,53,3.20
2022,05,16,10,54,1.40
2022,05,16,10,55,0.00
2022,05,16,10,56,4.00
2022,05,16,10,57,0.00
2022,05,16,10,58,0.80
2022,05,16,10,59,1.10
2022,05,16,11,00,1.20
2022,05,16,11,01,0.20
2022,05,16,11,02,0.00
2022,05,16,11,03,0.70
2022,05,16,11,04,0.80
2022,05,16,11,05,0.40
2022,05,16,11,06,4.00
2022,05,16,11,07,7.60
2022,05,16,11,08,3.00
2022,05,16,11,09,5.30
2022,05,16,11,10,0.20
2022,05,16,11,11,6.40
2022,05,16,11,12,6.10
2022,05,16,11,13,3.50
2022,05,16,11,14,4.50
2022,05,16,11,15,6.30
2022,05,16,11,16,3.10
2022,05,16,11,17,7.70
2022,05,16,11,18,9.10
2022,05,16,11,19,8.50
2022,05,16,11,20,10.10
2022,05,16,11,21,4.20
2022,05,16,11,22,5.10
2022,05,16,11,23,6.30
2022,05,16,11,24,6.00
2022,05,16,11,25,3.20
2022,05,16,11,26,3.70
2022,05,16,11,27,5.60
2022,05,16,11,28,8.10
2022,05,16,11,29,8.40
2022,05,16,11,30,6.90
2022,05,16,11,31,4.20
2022,05,16,11,32,4.00
2022,05,16,11,33,7.20
2022,05,16,11,34,15.40
2022,05,16,11,35,10.00
2022,05,16,11,36,18.00
2022,05,16,11,37,18.30
2022,05,16,11,38,6.10
2022,05,16,11,39,8.30
2022,05,16,11,40,13.20
2022,05,16,11,41,15.20
2022,05,16,11,42,8.40
2022,05,16,11,43,10.50
2022,05,16,11,44,6.00
2022,05,16,11,45,6.40
2022,05,16,11,46,11.70
2022,05,16,11,47,8.10
2022,05,16,11,48,4.00
2022,05,16,11,49,6.80
2022,05,16,11,50,10.60
2022,05,16,11,51,5.40
2022,05,16,11,52,10.70
2022,05,16,11,53,3.10
2022,05,16,11,54,5.40
2022,05,16,11,55,4.60
2022,05,16,11,56,4.40
2022,05,16,11,57,8.60
2022,05,16,11,58,15.70
2022,05,16,11,59,6.40
2022,05,16,12,00,13.60
2022,05,16,12,01,7.20
2022,05,16,12,02,10.80
2022,05,16,12,03,12.10
2022,05,16,12,04,7.70
2022,05,16,12,05,13.20
2022,05,16,12,06,6.40
2022,05,16,12,07,4.40
2022,05,16,12,08,10.80
2022,05,16,12,09,8.30
2022,05,16,12,10,5.20
2022,05,16,12,11,6.40
2022,05,16,12,12,4.70
2022,05,16,12,13,3.60
2022,05,16,12,14,4.80
2022,05,16,12,15,3.20
2022,05,16,12,16,11.10
2022,05,16,12,17,10.50
2022,05,16,12,18,12.00
2022,05,16,12,19,9.70
2022,05,16,12,20,8.20
2022,05,16,12,21,3.40
2022,05,16,12,22,7.60
2022,05,16,12,23,6.70
2022,05,16,12,24,11.10
2022,05,16,12,25,5.60
2022,05,16,12,26,10.70
2022,05,16,12,27,10.60
2022,05,16,12,28,7.20
2022,05,16,12,29,6.10
2022,05,16,12,30,7.00
2022,05,16,12,31,5.00
2022,05,16,12,32,13.70
2022,05,16,12,33,8.50
2022,05,16,12,34,12.20
2022,05,16,12,35,13.80
2022,05,16,12,36,9.30
2022,05,16,12,37,4.30
2022,05,16,12,38,9.10
2022,05,16,12,39,10.10
2022,05,16,12,40,6.70
2022,05,16,12,41,9.10
2022,05,16,12,42,8.00
2022,05,16,12,43,12.40
2022,05,16,12,44,7.10
2022,05,16,12,45,9.00
2022,05,16,12,46,10.00
2022,05,16,12,47,6.40
2022,05,16,12,48,8.00
2022,05,16,12,49,3.70
2022,05,16,12,50,2.10
2022,05,16,12,51,13.00
2022,05,16,12,52,9.20
2022,05,16,12,53,7.70
2022,05,16,12,54,7.00
2022,05,16,12,55,10.50
2022,05,16,12,56,8.60
2022,05,16,12,57,2.80
2022,05,16,12,58,1.90
2022,05,16,12,59,6.40
2022,05,16,13,00,7.20
2022,05,16,13,01,3.10
2022,05,16,13,02,6.80
2022,05,16,13,03,1.90
2022,05,16,13,04,8.60
2022,05,16,13,05,5.90
2022,05,16,13,06,10.10
2022,05,16,13,07,8.00
2022,05,16,13,08,3.10
2022,05,16,13,09,13.40
2022,05,16,13,10,8.90
2022,05,16,13,11,8.70
2022,05,16,13,12,10.20
2022,05,16,13,13,13.20
2022,05,16,13,14,2.70
2022,05,16,13,15,5.50
2022,05,16,13,16,2.80
2022,05,16,13,17,11.50
2022,05,16,13,18,6.80
2022,05,16,13,19,6.70
2022,05,16,13,20,8.80
2022,05,16,13,21,6.00
2022,05,16,13,22,3.60
2022,05,16,13,23,14.20
2022,05,16,13,24,17.40
2022,05,16,13,25,15.90
2022,05,16,13,26,3.50
2022,05,16,13,27,2.90
2022,05,16,13,28,6.10
2022,05,16,13,29,6.80
2022,05,16,13,30,9.70
2022,05,16,13,31,1.80
2022,05,16,13,32,3.10
2022,05,16,13,33,4.80
2022,05,16,13,34,4.80
2022,05,16,13,35,5.10
2022,05,16,13,36,5.30
2022,05,16,13,37,7.90
2022,05,16,13,38,0.30
2022,05,16,13,39,4.10
2022,05,16,13,40,0.60
2022,05,16,13,41,1.80
2022,05,16,13,42,2.30
2022,05,16,13,43,0.40
2022,05,16,13,44,0.00
2022,05,16,13,45,0.80
2022,05,16,13,46,0.10
2022,05,16,13,47,1.70
2022,05,16,13,48,7.20
2022,05,16,13,49,0.60
2022,05,16,13,50,4.60
2022,05,16,13,51,6.80
2022,05,16,13,52,7.80
2022,05,16,13,53,7.80
2022,05,16,13,54,9.20
2022,05,16,13,55,4.90
2022,05,16,13,56,6.00
2022,05,16,13,57,5.00
2022,05,16,13,58,2.50
2022,05,16,13,59,9.60
2022,05,16,14,00,7.00
2022,05,16,14,01,1.40
2022,05,16,14,02,0.10
2022,05,16,14,03,4.20
2022,05,16,14,04,2.00
2022,05,16,14,05,0.00
2022,05,16,14,06,0.40
2022,05,16,14,07,3.30
2022,05,16,14,08,6.70
2022,05,16,14,09,5.70
2022,05,16,14,10,5.40
2022,05,16,14,11,0.80
2022,05,16,14,12,0.10
2022,05,16,14,13,5.30
2022,05,16,14,14,0.80
2022,05,16,14,15,3.30
2022,05,16,14,16,9.70
2022,05,16,14,17,3.30
2022,05,16,14,18,3.70
2022,05,16,14,19,1.40
2022,05,16,14,20,3.50
2022,05,16,14,21,3.90
2022,05,16,14,22,2.50
2022,05,16,14,23,4.00
2022,05,16,14,24,4.50
2022,05,16,14,25,1.50
2022,05,16,14,26,0.70
2022,05,16,14,27,0.00
2022,05,16,14,28,0.00
2022,05,16,14,29,1.40
2022,05,16,14,30,0.70
2022,05,16,14,31,0.00
2022,05,16,14,32,1.40
2022,05,16,14,33,0.00
2022,05,16,14,34,0.60
2022,05,16,14,35,6.80
2022,05,16,14,36,3.10
2022,05,16,14,37,0.00
2022,05,16,14,38,0.80
2022,05,16,14,39,12.10
2022,05,16,14,40,0.10
2022,05,16,14,41,1.00
2022,05,16,14,42,7.40
2022,05,16,14,43,8.60
2022,05,16,14,44,7.00
2022,05,16,14,45,5.10
2022,05,16,14,46,1.80
2022,05,16,14,47,6.90
2022,05,16,14,48,4.00
2022,05,16,14,49,0.00
2022,05,16,14,50,4.50
2022,05,16,14,51,3.60
2022,05,16,14,52,0.80
2022,05,16,14,53,1.50
2022,05,16,14,54,0.30
2022,05,16,14,55,0.00
2022,05,16,14,56,0.20
2022,05,16,14,57,0.00
2022,05,16,14,58,0.30
2022,05,16,14,59,6.10
2022,05,16,15,00,0.20
2022,05,16,15,01,0.00
2022,05,16,15,02,0.00
2022,05,16,15,03,4.00
2022,05,16,15,04,5.60
2022,05,16,15,05,1.20
2022,05,16,15,06,0.00
2022,05,16,15,07,0.30
2022,05,16,15,08,0.40
2022,05,16,15,09,0.10
2022,05,16,15,10,0.00
2022,05,16,15,11,1.80
2022,05,16,15,12,0.00
2022,05,16,15,13,0.10
2022,05,16,15,14,0.30
2022,05,16,15,15,0.20
2022,05,16,15,16,0.60
2022,05,16,15,17,0.20
2022,05,16,15,18,2.20
2022,05,16,15,19,0.00
2022,05,16,15,20,0.00
2022,05,16,15,21,0.10
2022,05,16,15,22,0.00
2022,05,16,15,23,1.20
2022,05,16,15,24,0.20
2022,05,16,15,25,0.00
2022,05,16,15,26,3.30
2022,05,16,15,27,9.30
2022,05,16,15,28,9.00
2022,05,16,15,29,4.50
2022,05,16,15,30,11.10
2022,05,16,15,31,4.60
2022,05,16,15,32,3.90
2022,05,16,15,33,0.10
2022,05,16,15,34,0.90
2022,05,16,15,35,1.80
2022,05,16,15,36,0.00
2022,05,16,15,37,0.00
2022,05,16,15,38,0.00
2022,05,16,15,39,0.00
2022,05,16,15,40,0.00
2022,05,16,15,41,0.00
2022,05,16,15,42,0.00
2022,05,16,15,43,2.70
2022,05,16,15,44,2.40
2022,05,16,15,45,4.90
2022,05,16,15,46,2.90
2022,05,16,15,47,0.50
2022,05,16,15,48,5.20
2022,05,16,15,49,2.40
2022,05,16,15,50,6.40
2022,05,16,15,51,1.80
2022,05,16,15,52,0.50
2022,05,16,15,53,1.50
2022,05,16,15,54,2.90
2022,05,16,15,55,2.50
2022,05,16,15,56,2.40
2022,05,16,15,57,0.50
2022,05,16,15,58,2.50
2022,05,16,15,59,6.80
2022,05,16,16,00,2.90
2022,05,16,16,01,5.00
2022,05,16,16,02,4.10
2022,05,16,16,03,3.90
2022,05,16,16,04,2.10
2022,05,16,16,05,1.50
2022,05,16,16,06,0.10
2022,05,16,16,07,5.60
2022,05,16,16,08,6.20
2022,05,16,16,09,7.70
2022,05,16,16,10,0.30
2022,05,16,16,11,1.30
2022,05,16,16,12,2.50
2022,05,16,16,13,0.80
2022,05,16,16,14,0.00
2022,05,16,16,15,0.00
2022,05,16,16,16,0.20
2022,05,16,16,17,1.30
2022,05,16,16,18,6.80
2022,05,16,16,19,4.80
2022,05,16,16,20,0.80
2022,05,16,16,21,1.80
2022,05,16,16,22,0.00
2022,05,16,16,23,1.40
2022,05,16,16,24,0.30
2022,05,16,16,25,0.00
2022,05,16,16,26,0.10
2022,05,16,16,27,1.40
2022,05,16,16,28,5.90
2022,05,16,16,29,0.60
2022,05,16,16,30,0.00
2022,05,16,16,31,1.40
2022,05,16,16,32,1.40
2022,05,16,16,33,4.70
2022,05,16,16,34,3.30
2022,05,16,16,35,4.20
2022,05,16,16,36,0.30
2022,05,16,16,37,5.20
2022,05,16,16,38,6.90
2022,05,16,16,39,7.00
2022,05,16,16,40,6.90
2022,05,16,16,41,4.70
2022,05,16,16,42,0.00
2022,05,16,16,43,0.60
2022,05,16,16,44,2.90
2022,05,16,16,45,7.90
2022,05,16,16,46,5.90
2022,05,16,16,47,4.40
2022,05,16,16,48,0.00
2022,05,16,16,49,3.50
2022,05,16,16,50,3.20
2022,05,16,16,51,2.80
2022,05,16,16,52,3.00
2022,05,16,16,53,2.70
2022,05,16,16,54,2.40
2022,05,16,16,55,1.90
2022,05,16,16,56,2.80
2022,05,16,16,57,0.30
2022,05,16,16,58,0.00
2022,05,16,16,59,0.10
2022,05,16,17,00,0.00
2022,05,16,17,01,0.00
2022,05,16,17,02,3.20
2022,05,16,17,03,1.80
2022,05,16,17,04,1.00
2022,05,16,17,05,0.00
2022,05,16,17,06,1.30
2022,05,16,17,07,7.90
2022,05,16,17,08,8.40
2022,05,16,17,09,0.10
2022,05,16,17,10,6.10
2022,05,16,17,11,7.80
2022,05,16,17,12,3.50
2022,05,16,17,13,1.40
2022,05,16,17,14,1.90
2022,05,16,17,15,0.00
2022,05,16,17,16,0.00
2022,05,16,17,17,0.00
2022,05,16,17,18,0.00
2022,05,16,17,19,0.00
2022,05,16,17,20,0.00
2022,05,16,17,21,0.20
2022,05,16,17,22,0.30
2022,05,16,17,23,0.00
2022,05,16,17,24,0.00
2022,05,16,17,25,5.00
2022,05,16,17,26,6.20
2022,05,16,17,27,4.40
2022,05,16,17,28,7.50
2022,05,16,17,29,0.90
2022,05,16,17,30,1.40
2022,05,16,17,31,2.70
2022,05,16,17,32,0.00
2022,05,16,17,33,3.40
2022,05,16,17,34,4.50
2022,05,16,17,35,0.60
2022,05,16,17,36,2.30
2022,05,16,17,37,1.10
2022,05,16,17,38,0.10
2022,05,16,17,39,0.00
2022,05,16,17,40,0.20
2022,05,16,17,41,0.10
2022,05,16,17,42,0.00
2022,05,16,17,43,0.00
2022,05,16,17,44,0.70
2022,05,16,17,45,0.00
2022,05,16,17,46,0.00
2022,05,16,17,47,0.00
2022,05,16,17,48,0.10
2022,05,16,17,49,0.10
2022,05,16,17,50,0.00
2022,05,16,17,51,2.30
2022,05,16,17,52,0.00
2022,05,16,17,53,0.00
2022,05,16,17,54,0.00
2022,05,16,17,55,1.60
2022,05,16,17,56,0.30
2022,05,16,17,57,2.70
2022,05,16,17,58,0.00
2022,05,16,17,59,3.80
2022,05,16,18,00,5.90
2022,05,16,18,01,1.40
2022,05,16,18,02,0.10
2022,05,16,18,03,0.10